OneWeb SL0663

operational
NORAD ID: 55823 Int'l Des: 2023-029 Owner: ONEWEBN Country: UK Constellation: oneweb
LEOCIRCULARPOLARONEWEB_TYPE

Über OneWeb SL0663

Beschreibung wird geladen...

Live-Position

3D-Globus wird geladen...

Nächste Überflüge

Höhenverlauf

Altitude vs Time

uPlot chart will show altitude changes over time

Zweizeiliger Elementsatz

1 55823U 23029AD 26034.46101857 .00000038 00000-0 62295-4 0 9995
2 55823 87.9238 301.1862 0001288 77.4717 282.6561 13.20859562143497
Epoch: 3. Feb. 2026 • Age: 20 hours

Aktueller Status

Höhe 1185.8 km
Geschwindigkeit 7.26 km/s
Subsatellitenpunkt -8.70°S, 60.96°E
Startdatum 9. März 2023
Alter 2.9 years
Typ internet

Technische Details

Klassifizierung Payload
Masse 148.00 kg
Trockenmasse 140.00 kg
Gesamtmasse 148.00 kg
Länge 1.30 m
Durchmesser 1.00 m
Spannweite 5.00 m
Form Trapezoid+2 pan
Hersteller ONEWUS
Bus-Typ ARROW
Phasenstatus In Orbit
Besitzer/Staat ONEWEBN/UK

Große Konstellationen

Loading constellations...